Location: Bluff Heights
(33.7692°N, 118.1592°W)
Time: 18:27:14
(UTC+00:00)

Tiros 1 - Pass Details

Date: 01 August 2021
Orbit: 630 x 663 km, 48.4° (Epoch: 22 September)

Event Time Altitude Azimuth Distance (km) Brightness Sun altitude
Rises 00:01:15 0° 198° (SSW) 2,976 10.8 34.1°
Reaches altitude 10° 00:03:57 10° 184° (S) 2,066 9.9 33.5°
Maximum altitude 00:07:45 24° 131° (SE) 1,365 8.6 32.7°
Drops below altitude 10° 00:11:33 10° 78° (ENE) 2,065 9.3 31.9°
Sets 00:14:15 0° 65° (ENE) 2,975 10.1 31.4°
